DW2489 Weather Reports


time (UTC)temp
C
wind
direction
speed
KPH
gust
KPH
rain 1hr
cm
rain 24hr
cm
rain mn
cm
humidity
%
barometer
mb
20260509035109 3 242 0.0 0.0 0.00 0.00 0.00 1012.2
20260509034608 3 242 0.0 0.0 0.00 0.00 0.00 1011.9
20260509034107 3 242 0.0 0.0 0.00 0.00 0.00 1012.2
20260509033605 3 242 0.0 0.0 0.00 0.00 0.00 1012.2
20260509033103 3 242 0.0 0.0 0.00 0.00 0.00 1012.2
20260509032601 3 242 0.0 0.0 0.00 0.00 0.00 1012.2
20260509032100 3 242 0.0 0.0 0.00 0.00 0.00 1012.2
20260509031559 3 242 0.0 0.0 0.00 0.00 0.00 1012.2
20260509031058 3 242 0.0 0.0 0.00 0.00 0.00 1012.2
20260509030556 3 242 0.0 0.0 0.00 0.00 0.00 1012.2
20260509030055 3 242 0.0 0.0 0.00 0.00 0.00 1012.2
20260509025553 4 242 0.0 3.2 0.00 0.00 0.00 1012.2
20260509025051 4 239 0.0 3.2 0.00 0.00 0.00 1012.2
20260509024550 4 239 0.0 3.2 0.00 0.00 0.00 1012.2
20260509024049 4 239 0.0 0.0 0.00 0.00 0.00 1012.2
20260509023546 4 233 0.0 0.0 0.00 0.00 0.00 1012.2
20260509023045 5 233 0.0 0.0 0.00 0.00 0.00 1012.2
20260509022511 5 233 0.0 0.0 0.00 0.00 0.00 1012.2
20260509022010 5 233 0.0 0.0 0.00 0.00 0.00 1011.9
20260509021508 5 233 0.0 0.0 0.00 0.00 0.00 1011.9
20260509021007 5 233 0.0 0.0 0.00 0.00 0.00 1011.9
20260509020505 5 233 0.0 0.0 0.00 0.00 0.00 1011.9
20260509015830 5 233 0.0 0.0 0.00 0.00 0.00 1011.9
20260509015328 5 233 0.0 0.0 0.00 0.00 0.00 1011.9
20260509014756 5 233 0.0 0.0 0.00 0.00 0.00 1011.9
20260509014223 6 233 0.0 0.0 0.00 0.00 0.00 1011.5
20260509013618 6 233 0.0 0.0 0.00 0.00 0.00 1011.5
20260509013116 6 233 0.0 0.0 0.00 0.00 0.00 1011.5
20260509012615 6 233 0.0 0.0 0.00 0.00 0.00 1011.5
20260509012114 6 233 0.0 0.0 0.00 0.00 0.00 1011.5
20260509011613 6 233 0.0 0.0 0.00 0.00 0.00 1011.5
20260509011112 6 233 0.0 0.0 0.00 0.00 0.00 1011.2
20260509010610 7 233 0.0 0.0 0.00 0.00 0.00 1011.2
20260509010109 7 233 0.0 0.0 0.00 0.00 0.00 1011.2
20260509005607 7 233 0.0 0.0 0.00 0.00 0.00 1011.2
20260509005106 7 233 0.0 0.0 0.00 0.00 0.00 1010.8
20260509004605 7 233 0.0 0.0 0.00 0.00 0.00 1010.8
20260509004102 8 233 0.0 0.0 0.00 0.00 0.00 1010.8
20260509003601 8 233 0.0 0.0 0.00 0.00 0.00 1010.8
20260509003059 8 233 0.0 0.0 0.00 0.00 0.00 1010.5
20260509002558 8 233 0.0 0.0 0.00 0.00 0.00 1010.5
20260509002057 9 233 0.0 0.0 0.00 0.00 0.00 1010.5
20260509001556 9 233 0.0 0.0 0.00 0.00 0.00 1010.5
20260509001052 10 233 0.0 4.8 0.00 0.00 0.00 1010.5
20260509000551 10 233 0.0 4.8 0.00 0.00 0.00 1010.5
20260509000050 10 233 0.0 0.0 0.00 0.00 0.00 1010.5
20260508235549 11 233 0.0 0.0 0.00 0.00 0.00 1010.5
20260508235047 11 233 0.0 0.0 0.00 0.00 0.00 1010.5
20260508234546 11 233 0.0 4.8 0.00 0.00 0.00 1010.5
20260508234044 11 233 0.0 6.4 0.00 0.00 0.00 1010.5
20260508233543 11 233 1.6 6.4 0.00 0.00 0.00 1010.5
20260508233040 11 276 3.2 9.7 0.00 0.00 0.00 1010.5
20260508232538 11 279 1.6 9.7 0.00 0.00 0.00 1010.5
20260508232036 11 263 3.2 9.7 0.00 0.00 0.00 1010.2
20260508231535 12 264 3.2 9.7 0.00 0.00 0.00 1010.2
20260508231032 12 259 0.0 6.4 0.00 0.00 0.00 1010.2
20260508230531 12 259 0.0 6.4 0.00 0.00 0.00 1010.2
20260508230030 12 254 1.6 11.3 0.00 0.00 0.00 1010.2
20260508225529 12 272 3.2 11.3 0.00 0.00 0.00 1010.2
20260508225028 12 289 1.6 11.3 0.00 0.00 0.00 1010.2
20260508224525 12 272 1.6 11.3 0.00 0.00 0.00 1010.2
20260508224022 12 301 4.8 11.3 0.00 0.00 0.00 1010.2
20260508223521 12 249 4.8 11.3 0.00 0.00 0.00 1010.2
20260508223019 12 288 1.6 16.1 0.00 0.00 0.00 1010.2
20260508222517 12 289 3.2 19.3 0.00 0.00 0.00 1010.2
20260508222015 12 265 12.9 19.3 0.00 0.00 0.00 1010.2
20260508221515 12 261 6.4 11.3 0.00 0.00 0.00 1010.2
20260508221013 12 270 4.8 19.3 0.00 0.00 0.00 1010.2
20260508220440 12 268 4.8 19.3 0.00 0.00 0.00 1010.2
20260508215939 12 270 9.7 19.3 0.00 0.00 0.00 1010.2
20260508215406 12 249 4.8 14.5 0.00 0.00 0.00 1010.2
20260508214905 11 264 6.4 14.5 0.00 0.00 0.00 1010.2
20260508214404 11 271 8.0 14.5 0.00 0.00 0.00 1010.2
20260508213901 11 311 3.2 19.3 0.00 0.00 0.00 1010.2
20260508213359 11 278 3.2 19.3 0.00 0.00 0.00 1010.2
20260508212857 11 280 4.8 24.1 0.00 0.00 0.00 1010.2
20260508212356 11 267 4.8 24.1 0.00 0.00 0.00 1010.2
20260508211854 12 283 6.4 19.3 0.00 0.00 0.00 1010.2
20260508211352 12 287 1.6 19.3 0.00 0.00 0.00 1010.2
20260508210850 12 291 3.2 19.3 0.00 0.00 0.00 1010.2
20260508210347 12 254 6.4 14.5 0.00 0.00 0.00 1010.2
20260508205845 12 264 6.4 14.5 0.00 0.00 0.00 1010.2
20260508205344 11 284 6.4 16.1 0.00 0.00 0.00 1010.2
20260508204842 11 216 1.6 16.1 0.00 0.00 0.00 1009.8
20260508204310 11 249 6.4 16.1 0.00 0.00 0.00 1009.8
20260508203808 11 1 6.4 20.9 0.00 0.00 0.00 1010.2
20260508203306 11 327 3.2 20.9 0.00 0.00 0.00 1010.2
20260508202804 10 320 4.8 20.9 0.00 0.00 0.00 1010.2
20260508202306 10 279 4.8 16.1 0.00 0.00 0.00 1010.2
20260508201801 11 341 6.4 19.3 0.00 0.00 0.00 1010.2
20260508201229 11 5 4.8 29.0 0.00 0.00 0.00 1010.2
20260508200728 12 0 8.0 29.0 0.00 0.00 0.00 1010.2
20260508200227 12 334 4.8 20.9 0.00 0.00 0.00 1010.2
20260508195725 12 294 6.4 29.0 0.00 0.00 0.00 1009.8
20260508195222 12 257 6.4 29.0 0.00 0.00 0.00 1009.5
20260508194546 12 225 14.5 29.0 0.00 0.00 0.00 1009.5
20260508194045 13 230 6.4 25.7 0.00 0.00 0.00 1009.5
20260508193543 13 216 9.7 30.6 0.00 0.00 0.00 1009.5
20260508193042 13 262 14.5 30.6 0.00 0.00 0.00 1009.5
20260508192439 13 275 6.4 25.7 0.00 0.00 0.00 1009.5
20260508191938 12 266 14.5 25.7 0.00 0.00 0.00 1009.5
20260508191437 12 262 8.0 25.7 0.00 0.00 0.00 1009.5
20260508190936 12 288 9.7 25.7 0.00 0.00 0.00 1009.5
20260508190433 12 271 6.4 20.9 0.00 0.00 0.00 1009.5
20260508185932 12 279 4.8 24.1 0.00 0.00 0.00 1009.5
20260508185431 12 270 6.4 24.1 0.00 0.00 0.00 1009.8
20260508184929 12 265 12.9 24.1 0.00 0.00 0.00 1009.8
20260508184356 13 214 6.4 16.1 0.00 0.00 0.00 1009.8
20260508183854 13 225 6.4 19.3 0.00 0.00 0.00 1009.8
20260508183352 13 260 6.4 19.3 0.00 0.00 0.00 1009.8
20260508182818 13 235 9.7 24.1 0.00 0.00 0.00 1009.8
20260508182317 13 264 4.8 24.1 0.00 0.00 0.00 1009.8
20260508181713 13 275 11.3 24.1 0.00 0.00 0.00 1009.8
20260508181211 13 249 8.0 16.1 0.00 0.00 0.00 1009.8
20260508180703 13 280 9.7 19.3 0.00 0.00 0.00 1009.8
20260508180200 13 220 8.0 29.0 0.00 0.00 0.00 1009.8
20260508175657 13 272 11.3 29.0 0.00 0.00 0.00 1009.8
20260508175123 13 283 9.7 24.1 0.00 0.00 0.00 1010.2
20260508174622 13 261 6.4 25.7 0.00 0.00 0.00 1009.8
20260508174121 13 270 9.7 25.7 0.00 0.00 0.00 1010.2
20260508173620 13 243 11.3 32.2 0.00 0.00 0.00 1009.8
20260508173119 13 247 11.3 32.2 0.00 0.00 0.00 1010.2
20260508172617 13 241 11.3 24.1 0.00 0.00 0.00 1010.2
20260508172116 13 289 6.4 20.9 0.00 0.00 0.00 1010.2
20260508171615 13 221 9.7 30.6 0.00 0.00 0.00 1010.2
20260508171113 13 287 6.4 32.2 0.00 0.00 0.00 1010.2
20260508170612 13 286 16.1 32.2 0.00 0.00 0.00 1010.2
20260508170110 13 225 9.7 25.7 0.00 0.00 0.00 1009.8
20260508165609 13 271 9.7 25.7 0.00 0.00 0.00 1009.8
20260508165035 14 267 6.4 20.9 0.00 0.00 0.00 1010.2
20260508164534 14 271 12.9 20.9 0.00 0.00 0.00 1010.2
20260508164031 13 240 4.8 32.2 0.00 0.00 0.00 1010.2
20260508163458 13 236 6.4 32.2 0.00 0.00 0.00 1010.2
20260508162957 13 259 6.4 20.9 0.00 0.00 0.00 1010.2
20260508162456 13 249 8.0 30.6 0.00 0.00 0.00 1010.2
20260508161955 12 248 9.7 30.6 0.00 0.00 0.00 1010.2
20260508161423 12 268 12.9 30.6 0.00 0.00 0.00 1010.2
20260508160921 12 262 9.7 24.1 0.00 0.00 0.00 1010.2
20260508160420 12 249 9.7 20.9 0.00 0.00 0.00 1010.2
20260508155918 12 237 9.7 29.0 0.00 0.00 0.00 1010.5
20260508155416 12 248 3.2 30.6 0.00 0.00 0.00 1010.5
20260508154913 12 279 12.9 30.6 0.00 0.00 0.00 1010.5
20260508154413 12 288 8.0 30.6 0.00 0.00 0.00 1010.5
20260508153910 12 272 9.7 19.3 0.00 0.00 0.00 1010.2
20260508153409 12 240 9.7 25.7 0.00 0.00 0.00 1010.2
20260508152906 12 276 6.4 25.7 0.00 0.00 0.00 1010.2
20260508152403 12 270 14.5 25.7 0.00 0.00 0.00 1010.2
20260508151800 12 271 11.3 24.1 0.00 0.00 0.00 1010.2
20260508151259 12 317 6.4 24.1 0.00 0.00 0.00 1010.2
20260508150757 12 281 9.7 24.1 0.00 0.00 0.00 1010.2
20260508150255 12 276 11.3 24.1 0.00 0.00 0.00 1010.2
20260508145752 12 320 6.4 20.9 0.00 0.00 0.00 1010.2
20260508145251 11 272 3.2 14.5 0.00 0.00 0.00 1010.2
20260508144749 11 245 6.4 16.1 0.00 0.00 0.00 1010.2
20260508144248 11 245 4.8 16.1 0.00 0.00 0.00 1010.2
20260508143745 12 216 6.4 19.3 0.00 0.00 0.00 1010.2
20260508143244 12 296 3.2 19.3 0.00 0.00 0.00 1010.2
20260508142742 12 272 9.7 19.3 0.00 0.00 0.00 1010.2
20260508142242 12 270 8.0 16.1 0.00 0.00 0.00 1010.2
20260508141739 12 209 4.8 19.3 0.00 0.00 0.00 1010.2
20260508141238 12 234 4.8 19.3 0.00 0.00 0.00 1010.2
20260508140704 12 326 6.4 19.3 0.00 0.00 0.00 1010.5
20260508140203 12 355 3.2 16.1 0.00 0.00 0.00 1010.5
20260508135558 12 261 3.2 24.1 0.00 0.00 0.00 1010.2
20260508135057 11 279 6.4 24.1 0.00 0.00 0.00 1010.5
20260508134552 11 266 6.4 16.1 0.00 0.00 0.00 1010.5
20260508134051 11 251 8.0 19.3 0.00 0.00 0.00 1010.5
20260508133550 11 236 6.4 19.3 0.00 0.00 0.00 1010.5
20260508133017 11 297 3.2 16.1 0.00 0.00 0.00 1010.5
20260508132515 11 305 6.4 25.7 0.00 0.00 0.00 1010.5
20260508132014 11 258 11.3 25.7 0.00 0.00 0.00 1010.5
20260508131441 11 278 9.7 20.9 0.00 0.00 0.00 1010.5
20260508130940 11 266 6.4 24.1 0.00 0.00 0.00 1010.5
20260508130405 10 299 3.2 24.1 0.00 0.00 0.00 1010.5
20260508125904 10 262 9.7 24.1 0.00 0.00 0.00 1010.5
20260508125403 10 252 6.4 14.5 0.00 0.00 0.00 1010.5
20260508124900 9 297 1.6 19.3 0.00 0.00 0.00 1010.5
20260508124357 9 273 8.0 19.3 0.00 0.00 0.00 1010.5
20260508123856 8 265 6.4 19.3 0.00 0.00 0.00 1010.5
20260508123323 8 255 9.7 20.9 0.00 0.00 0.00 1010.5
20260508122821 8 254 4.8 20.9 0.00 0.00 0.00 1010.5
20260508122320 7 258 6.4 20.9 0.00 0.00 0.00 1010.5
20260508121819 7 286 3.2 14.5 0.00 0.00 0.00 1010.5
20260508121317 7 252 4.8 14.5 0.00 0.00 0.00 1010.5
20260508120815 7 288 6.4 14.5 0.00 0.00 0.00 1010.8
20260508120313 7 254 6.4 14.5 0.00 0.00 0.00 1010.8
20260508115740 7 271 6.4 14.5 0.00 0.00 0.00 1010.5
20260508115238 7 267 4.8 14.5 0.00 0.00 0.00 1010.5
20260508114737 7 288 3.2 14.5 0.00 0.00 0.00 1010.5
20260508114205 6 263 3.2 14.5 0.00 0.00 0.00 1010.5
20260508113704 6 189 3.2 9.7 0.00 0.00 0.00 1010.5
20260508113201 6 278 1.6 11.3 0.00 0.00 0.00 1010.8
20260508112659 6 272 3.2 11.3 0.00 0.00 0.00 1010.8
20260508112158 6 247 4.8 11.3 0.00 0.00 0.00 1010.5
20260508111657 6 274 6.4 16.1 0.00 0.00 0.00 1010.5
20260508111155 6 273 4.8 16.1 0.00 0.00 0.00 1010.5
20260508110653 6 261 6.4 11.3 0.00 0.00 0.00 1010.5
20260508110151 6 262 4.8 11.3 0.00 0.00 0.00 1010.5
20260508105650 6 285 3.2 11.3 0.00 0.00 0.00 1010.2
20260508105148 6 292 1.6 14.5 0.00 0.00 0.00 1010.2
20260508104646 6 260 4.8 14.5 0.00 0.00 0.00 1010.2
20260508104143 6 253 6.4 11.3 0.00 0.00 0.00 1010.2
20260508103642 6 304 3.2 11.3 0.00 0.00 0.00 1010.2
20260508103107 6 253 1.6 16.1 0.00 0.00 0.00 1010.2
20260508102605 6 260 4.8 19.3 0.00 0.00 0.00 1010.2
20260508102101 6 296 8.0 19.3 0.00 0.00 0.00 1009.8
20260508101529 5 262 6.4 16.1 0.00 0.00 0.00 1010.2
20260508101029 5 253 3.2 11.3 0.00 0.00 0.00 1009.8
20260508100527 5 274 6.4 14.5 0.00 0.00 0.00 1009.8
20260508100026 5 263 3.2 14.5 0.00 0.00 0.00 1009.8
20260508095525 5 272 6.4 14.5 0.00 0.00 0.00 1009.8
20260508095023 5 270 4.8 14.5 0.00 0.00 0.00 1009.5
20260508094522 5 271 4.8 14.5 0.00 0.00 0.00 1009.5
20260508093950 5 288 4.8 11.3 0.00 0.00 0.00 1009.5
20260508093449 5 301 4.8 9.7 0.00 0.00 0.00 1009.5
20260508092948 5 257 3.2 9.7 0.00 0.00 0.00 1009.5
20260508092446 5 248 1.6 9.7 0.00 0.00 0.00 1009.5
20260508091944 5 244 1.6 4.8 0.00 0.00 0.00 1009.5
20260508091442 5 244 0.0 4.8 0.00 0.00 0.00 1009.5
20260508090941 4 244 0.0 4.8 0.00 0.00 0.00 1009.5
20260508090407 4 244 0.0 4.8 0.00 0.00 0.00 1009.5
20260508085904 4 244 0.0 0.0 0.00 0.00 0.00 1009.1
20260508085403 4 244 0.0 0.0 0.00 0.00 0.00 1009.1
20260508084901 5 244 0.0 3.2 0.00 0.00 0.00 1009.1
20260508084359 5 244 0.0 3.2 0.00 0.00 0.00 1009.1
20260508083858 5 253 0.0 0.0 0.00 0.00 0.00 1009.1
20260508083355 5 246 0.0 0.0 0.00 0.00 0.00 1009.1
20260508082854 5 246 0.0 0.0 0.00 0.00 0.00 1009.1
20260508082352 4 246 0.0 0.0 0.00 0.00 0.00 1009.1
20260508081849 4 246 0.0 0.0 0.00 0.00 0.00 1009.1
20260508081347 4 246 0.0 0.0 0.00 0.00 0.00 1009.1
20260508080846 4 246 0.0 0.0 0.00 0.00 0.00 1009.1
20260508080344 4 246 0.0 0.0 0.00 0.00 0.00 1009.1
20260508075843 4 246 0.0 0.0 0.00 0.00 0.00 1009.1
20260508075311 4 246 0.0 0.0 0.00 0.00 0.00 1009.1
20260508074809 4 246 0.0 0.0 0.00 0.00 0.00 1009.1
20260508074307 4 246 0.0 3.2 0.00 0.00 0.00 1009.1
20260508073805 4 253 0.0 3.2 0.00 0.00 0.00 1008.8
20260508073304 4 274 0.0 4.8 0.00 0.00 0.00 1008.8
20260508072730 4 274 0.0 4.8 0.00 0.00 0.00 1008.8
20260508072229 4 274 1.6 6.4 0.00 0.00 0.00 1009.1
20260508071727 4 274 1.6 6.4 0.00 0.00 0.00 1009.1
20260508071226 4 274 3.2 6.4 0.00 0.00 0.00 1009.1
20260508070725 4 274 0.0 6.4 0.00 0.00 0.00 1009.1
20260508070223 4 274 3.2 6.4 0.00 0.00 0.00 1009.1
20260508065651 3 274 4.8 6.4 0.00 0.00 0.00 1008.8
20260508065151 3 274 1.6 6.4 0.00 0.00 0.00 1008.8
20260508064649 3 278 1.6 4.8 0.00 0.00 0.00 1008.8
20260508064148 3 263 1.6 9.7 0.00 0.00 0.00 1008.8
20260508063645 3 290 0.0 9.7 0.00 0.00 0.00 1008.8
20260508063144 3 290 1.6 9.7 0.00 0.00 0.00 1008.8
20260508062643 3 290 3.2 9.7 0.00 0.00 0.00 1008.8
20260508062110 3 290 3.2 11.3 0.00 0.00 0.00 1009.1
20260508061609 2 291 4.8 11.3 0.00 0.00 0.00 1008.8
20260508061108 2 256 3.2 6.4 0.00 0.00 0.00 1009.1
20260508060535 2 256 0.0 0.0 0.00 0.00 0.00 1009.1
20260508060033 2 256 0.0 4.8 0.00 0.00 0.00 1009.1
20260508055532 2 256 0.0 4.8 0.00 0.00 0.00 1009.1
20260508055029 2 256 3.2 4.8 0.00 0.00 0.00 1009.1
20260508054528 2 256 1.6 4.8 0.00 0.00 0.00 1009.1
20260508054027 2 257 0.0 3.2 0.00 0.00 0.00 1009.1
20260508053526 2 264 0.0 3.2 0.00 0.00 0.00 1009.1
20260508053023 2 264 0.0 0.0 0.00 0.00 0.00 1009.1
20260508052522 2 264 0.0 0.0 0.00 0.00 0.00 1009.1
20260508051950 2 264 0.0 0.0 0.00 0.00 0.00 1009.1
20260508051448 3 264 0.0 4.8 0.00 0.00 0.00 1009.1
20260508050947 3 264 0.0 4.8 0.00 0.00 0.00 1009.1
20260508050445 3 264 0.0 4.8 0.00 0.00 0.00 1009.1
20260508045944 3 264 3.2 4.8 0.00 0.00 0.00 1009.1
20260508045443 3 264 0.0 0.0 0.00 0.00 0.00 1009.1
20260508044942 3 264 0.0 0.0 0.00 0.00 0.00 1009.1
20260508044440 3 264 0.0 0.0 0.00 0.00 0.00 1009.1
20260508043805 3 339 0.0 0.0 0.00 0.00 0.00 1009.1
20260508043303 3 333 0.0 0.0 0.00 0.00 0.00 1008.8
20260508042801 3 343 0.0 0.0 0.00 0.00 0.00 1008.8
20260508042259 4 343 0.0 0.0 0.00 0.00 0.00 1008.8
20260508041757 4 343 0.0 0.0 0.00 0.00 0.00 1009.1
20260508041255 4 343 0.0 0.0 0.00 0.00 0.00 1009.1
20260508040754 5 343 0.0 0.0 0.00 0.00 0.00 1009.1
20260508040253 5 343 0.0 0.0 0.00 0.00 0.00 1009.1
20260508035615 5 343 0.0 0.0 0.00 0.00 0.00 1009.1